Location: Ballingbuur
(53.0000°N, 5.7667°E)
Time: 06:31:57
(UTC+00:00)

Cosmos 2263 Rocket - Pass Details

Date: 29 November 2020
Orbit: 823 x 849 km, 71.0° (Epoch: 23 January)

Event Time Altitude Azimuth Distance (km) Brightness Sun altitude
Exits shadow 06:24:47 - 279° (W) 2,521 4.1 -8.6°
Reaches altitude 10° 06:24:57 10° 281° (W) 2,475 4.0 -8.6°
Maximum altitude 06:29:13 21° 330° (NNW) 1,813 3.5 -8.0°
Drops below altitude 10° 06:33:31 10° 19° (NNE) 2,487 4.6 -7.4°
Sets 06:36:36 0° 35° (NE) 3,425 5.5 -7.0°
